Regional Weather Roundup
Issued by NWS Northern Indiana

Home | Current Version | Previous Version | Graphics & Text | Print | Product List | Glossary On
Versions: 1 2 3 4 5 6 7 8 9 10 11 12 13 14 15 16 17 18 19 20 21 22 23 24 25 26 27 28 29 30 31 32 33 34 35 36 37 38 39 40 41 42 43 44 45 46 47 48 49 50
838
ASUS43 KIWX 150100
RWRIWX

KIWX WEATHER ROUNDUP
NATIONAL WEATHER SERVICE NORTHERN INDIANA
800 PM EST THU DEC 14 2017

NOTE: "FAIR" INDICATES FEW OR NO CLOUDS BELOW 12,000 FEET WITH NO
SIGNIFICANT WEATHER AND/OR OBSTRUCTIONS TO VISIBILITY.

* THESE STATIONS ARE NOT UNDER NWS QUALITY CONTROL. THEY ALSO MAY NOT
  REPORT WEATHER SUCH AS PRECIPITATION OR FOG.

INZ001>027-150200-
NORTHERN INDIANA

CITY           SKY/WX    TMP DP  RH WIND       PRES   REMARKS
GARY*          PTCLDY    25   9  50 W7        30.09R WCI  17
MICHIGAN CITY* CLOUDY    23  18  80 S3        30.07S
SOUTH BEND     CLOUDY    19  12  74 S8        30.07R WCI   9
ELKHART*       CLOUDY    19  10  68 CALM      30.06S
GOSHEN         CLOUDY    20  12  71 S5        30.06S WCI  13
MONTICELLO*    CLOUDY    23  14  69 CALM      30.07S
FORT WAYNE     CLOUDY    18  11  74 CALM      30.08S
PERU/GRISSOM   MOCLDY    23  15  70 CALM      30.06F

$$
INZ028>050-150200-
CENTRAL INDIANA

CITY           SKY/WX    TMP DP  RH WIND       PRES   REMARKS
LAFAYETTE      CLOUDY    25  16  68 E6        30.08S WCI  18
KOKOMO*        CLOUDY    23  17  78 SE3       30.08S
MUNCIE*        CLOUDY    23  13  65 SE5       30.07S WCI  17
INDIANAPOLIS   CLOUDY    25  14  63 SE5       30.07S WCI  19

$$
MIZ043>046-050>051-056>058-064>065-071>073-077>080-150200-
SOUTHWEST LOWER MICHIGAN

CITY           SKY/WX    TMP DP  RH WIND       PRES   REMARKS
BATTLE CREEK   FLURRIES  20  12  71 SW9       30.04S WCI   9
BENTON HARBOR  PTCLDY    21  15  78 CALM      30.06S
COLDWATER*     CLOUDY    19   9  66 S3        30.04F
HILLSDALE*     CLOUDY    19   9  63 S7        30.02F WCI  10
HOLLAND        CLOUDY    21  17  84 S6        30.05R WCI  13
GRAND RAPIDS   FLURRIES  21  17  84 SW10      30.03S WCI  10
KALAMAZOO      LGT SNOW  21  13  71 SW9       30.05S WCI  11
STURGIS*       FLURRIES  20  13  73 S5        30.04F WCI  14
THREE RIVERS*  LGT SNOW  21  14  73 S6        30.06S WCI  14

$$
OHZ001>008-015>018-024>025-150200-
NORTHWEST OHIO

CITY           SKY/WX    TMP DP  RH WIND       PRES   REMARKS
DEFIANCE       CLOUDY    12   5  73 CALM      30.09F
FINDLAY        MOCLDY    13   4  67 CALM      30.07F
TOLEDO EXPRESS CLOUDY     8   5  87 S3        30.09S
TOLEDO METCALF MOCLDY     9   3  77 SW6       30.10S WCI  -1
LIMA           MOCLDY    17  12  80 CALM      30.07S

$$
AND FOR LAKE MICHIGAN COASTAL AND OPEN LAKE BUOY OBSERVATIONS

STATION/POSITION TEMP    WIND        PRES    VSBY  WAVE
                 AIR SEA DIR/SP/G                  HT/PER
                 (F)     (DEG/KT/KT) (MB)    (MI)  (FT/S)
CALUMET HARBOR    25     280/  4/  6 1017.8R
MICHIGAN CITY     25     170/  6/  7   N/A
BURNS HARBOR      26     210/  7/  9 1019.0R
SAINT JOSEPH      22     150/  4/  7 1017.9

$$
&&




USA.gov is the U.S. government's official web portal to all federal, state and local government web resources and services.